Zurück zum Katalog

STARLINK-36564

AktivKommunikationSSO
NORAD 67549·PAYLOAD·🇺🇸 United States

Gestartet Jan 22, 2026 von Vandenberg Space Force Base

Loading…

Nächste Überflüge (nächste 24 Stunden)

TLE

AktuellSource: CelesTrak SupGP

Epoche: Sep 15, 2026, 03:25 UTC

1 67549C 26014T   26258.14284722  .00061005  00000+0  18931-2 0  2580
2 67549  97.2844 143.5372 0001908  97.5136 283.8217 15.33417666    15

Verfolge STARLINK-36564 in Echtzeit mit AllMySat

Download on the App Store